Buffalo, NY

6:53 PM EST on November 18, 2019 (GMT -0500)
Buffalo Niagara International

Weather History for KBUF - August, 2019

Change the Weather History Date:

Monday, August 19, 2019

  Actual Average Record
Temperature  
Mean Temperature 74 °F 70 °F  
Max Temperature 79 °F 78 °F 90 °F (1995)
Min Temperature 69 °F 61 °F 46 °F (1963)
Degree Days  
Heating Degree Days 0 1  
Month to date heating degree days 0 4  
Since 1 June heating degree days 62 77  
Since 1 July heating degree days 0 13  
Cooling Degree Days 9 5  
Month to date cooling degree days 133 109  
Year to date cooling degree days 501 435  
Since 1 June cooling degree days 493 409  
Growing Degree Days 24 (Base 50)    
Moisture  
Dew Point 65 °F    
Average Humidity 75    
Maximum Humidity 90    
Minimum Humidity 60    
Precipitation  
Precipitation 0.19 in 0.11 in 1.97 in (1880)
Month to date precipitation 2.64 2.03  
Year to date precipitation 27.39 23.93  
Snow  
Snow 0.00 in 0.00 in 0.00 in ()
Month to date snowfall 0.0 0.0  
Since 1 June snowfall 0.0 0.0  
Since 1 July snowfall 0.0 0.0  
Snow Depth 0.00 in    
Sea Level Pressure  
Sea Level Pressure 29.97 in    
Wind  
Wind Speed 11 mph (WSW)    
Max Wind Speed 26 mph    
Max Gust Speed 36 mph    
Visibility 10 miles    
Events Rain , Thunderstorm    
T = Trace of Precipitation, MM = Missing Value Source: NWS Daily Summary

Daily Weather History Graph

Daily Weather History Graph

Search for Another Location

Airport or City:

Astronomy

Aug. 19, 2019 Rise Set
Actual Time 6:25 AM EDT 8:11 PM EDT
Civil Twilight 5:54 AM EDT 8:41 PM EDT
Nautical Twilight 5:17 AM EDT 9:18 PM EDT
Astronomical Twilight 4:38 AM EDT 9:57 PM EDT
Moon 10:26 PM EDT (8/19) 10:09 AM EDT (8/19)
Length of Visible Light 14h 46m
Length of Day
13h 46m
Waning Gibbous, 85% of the Moon is Illuminated
Aug 19
Waning Gibbous
Aug 23
Last Quarter
Aug 30
New
Sep 5
First Quarter
Sep 14
Full

Hourly Weather History & Observations

Time (EDT) Temp. Dew Point Humidity Pressure Visibility Wind Dir Wind Speed Gust Speed Precip Events Conditions
12:54 AM 75.0 °F 60.1 °F 60% 29.84 in 10.0 mi SSW 10.4 mph - N/A   Mostly Cloudy
1:54 AM 75.9 °F 64.0 °F 67% 29.88 in 10.0 mi West 20.7 mph 31.1 mph N/A   Mostly Cloudy
2:01 AM 73.9 °F 64.9 °F 73% 29.91 in 7.0 mi West 20.7 mph 32.2 mph 0.00 in Rain Light Rain
2:40 AM 70.0 °F 66.0 °F 87% 29.91 in 10.0 mi WSW 8.1 mph - 0.09 in Rain , Thunderstorm Light Thunderstorms and Rain
2:54 AM 70.0 °F 66.0 °F 87% 29.91 in 9.0 mi SSW 11.5 mph - 0.10 in Rain , Thunderstorm Thunderstorms and Rain
3:01 AM 70.0 °F 66.0 °F 87% 29.91 in 5.0 mi SW 8.1 mph - 0.02 in Rain Heavy Rain
3:54 AM 70.0 °F 66.0 °F 87% 29.90 in 10.0 mi SW 12.7 mph - 0.09 in Rain Light Rain
4:54 AM 70.0 °F 68.0 °F 93% 29.89 in 10.0 mi SSW 9.2 mph - 0.00 in   Overcast
5:54 AM 70.0 °F 66.9 °F 90% 29.91 in 10.0 mi SSW 9.2 mph - 0.00 in   Overcast
6:01 AM 70.0 °F 66.9 °F 90% 29.92 in 10.0 mi SW 8.1 mph - N/A   Mostly Cloudy
6:54 AM 71.1 °F 64.9 °F 81% 29.94 in 10.0 mi WSW 12.7 mph - N/A   Partly Cloudy
7:17 AM 70.0 °F 64.9 °F 84% 29.96 in 10.0 mi WSW 8.1 mph - N/A   Mostly Cloudy
7:32 AM 70.0 °F 64.9 °F 84% 29.96 in 10.0 mi WSW 12.7 mph - N/A   Mostly Cloudy
7:54 AM 70.0 °F 64.9 °F 84% 29.96 in 10.0 mi WSW 11.5 mph - N/A   Mostly Cloudy
8:54 AM 73.0 °F 64.9 °F 76% 29.98 in 10.0 mi West 10.4 mph - N/A   Scattered Clouds
9:54 AM 75.0 °F 64.9 °F 71% 30.00 in 10.0 mi West 11.5 mph - N/A   Scattered Clouds
10:54 AM 75.9 °F 64.9 °F 69% 30.01 in 10.0 mi West 8.1 mph - N/A   Scattered Clouds
11:54 AM 77.0 °F 64.9 °F 66% 30.02 in 10.0 mi WSW 13.8 mph 19.6 mph N/A   Scattered Clouds
12:54 PM 77.0 °F 64.9 °F 66% 30.02 in 10.0 mi WSW 13.8 mph - N/A   Scattered Clouds
1:54 PM 78.1 °F 64.9 °F 64% 30.02 in 10.0 mi SW 15.0 mph 21.9 mph N/A   Partly Cloudy
2:54 PM 79.0 °F 66.0 °F 64% 30.01 in 10.0 mi WSW 15.0 mph - N/A   Partly Cloudy
3:54 PM 78.1 °F 64.0 °F 62% 30.01 in 10.0 mi WSW 13.8 mph - N/A   Mostly Cloudy
4:54 PM 78.1 °F 64.9 °F 64% 30.01 in 10.0 mi WSW 16.1 mph 23.0 mph N/A   Partly Cloudy
5:54 PM 77.0 °F 63.0 °F 62% 30.01 in 10.0 mi SW 15.0 mph 24.2 mph N/A   Partly Cloudy
6:54 PM 77.0 °F 64.0 °F 64% 30.01 in 10.0 mi WSW 13.8 mph 21.9 mph N/A   Partly Cloudy
7:54 PM 73.9 °F 64.9 °F 73% 30.01 in 10.0 mi WSW 13.8 mph - N/A   Partly Cloudy
8:54 PM 73.0 °F 64.9 °F 76% 30.02 in 10.0 mi WSW 8.1 mph - N/A   Partly Cloudy
9:54 PM 73.0 °F 64.0 °F 73% 30.04 in 10.0 mi SW 6.9 mph - N/A   Partly Cloudy
10:54 PM 72.0 °F 64.0 °F 76% 30.06 in 10.0 mi West 4.6 mph - N/A   Clear
11:54 PM 71.1 °F 64.0 °F 78% 30.07 in 10.0 mi SSW 3.5 mph - N/A   Clear